Content
SEND FEEDBACK

Daily
Averages
Monthly
Summary
United States of America

CHESTERFIELD, MISSOURI


Home > North America > United States > Missouri
Elevation: 559 feet     Latitude: 38 41N     Longitude: 090 31W

WEATHER
 
SELECT A DAY
Number of Records: 203,439;   Date Range: 1/1/95 - 7/29/14
 
SHARE

PRINT THIS DATA

[ ← Previous Day ]
WEATHER ALMANAC - JANUARY 17, 2013
[ Next Day → ]
[ °C ]   °F
Weather ElementAverageHighLow
Temperature34.6 °F41 °F (1:51 pm)27 °F (10:51 pm)
Dewpoint23.5 °F28.4 °F (8:36 am)19 °F (7:51 pm)
Humidity64.8 %79 % (6:51 am)45 % (2:51 pm)
Barometer30.38 in30.53 in (9:51 pm)30.18 in (1:51 am)
Wind Speed8.9 mph16.1 mph (8:51 am)
Wind Gust20.7 mph (8:51 am)
Weather ElementAverage
Visibility9.9 mi
Wind DirectionWSW (253.8 °)

Weather ElementTotal
Precipitation---
Heating Degree Days31 (Base 65)
Averaged from 29 records on January 17, 2013
WEATHER CONDITIONS BREAKOUT
WIND DIRECTION BREAKOUT
WEATHER BY HOUR - JANUARY 17, 2013
[ °C ]   °F
Local TimeTemperatureDewpointHumidityBarometerVisibilityWind DirectionWind SpeedGust SpeedPrecipitationEventsConditions
1:51 AM36.0 °F23.0 °F59 %30.18 in10.0 miSW (230°)3.5 mphOvercast
2:51 AM35.6 °F23.0 °F60 %30.18 in10.0 miWest (270°)4.6 mphMostly Cloudy
3:51 AM30.9 °F23.0 °F72 %30.21 in10.0 miCalmMostly Cloudy
4:51 AM30.9 °F23.0 °F72 %30.23 in10.0 miWest (280°)5.8 mphScattered Clouds
5:51 AM30.0 °F23.0 °F75 %30.26 in10.0 miNW (310°)6.9 mphPartly Cloudy
6:51 AM30.9 °F25.0 °F79 %30.28 in10.0 miNNW (330°)5.8 mphPartly Cloudy
7:51 AM34.0 °F28.0 °F79 %30.32 in9.0 miNorth (360°)13.8 mphScattered Clouds
8:36 AM35.6 °F28.4 °F75 %30.33 in9.0 miNorth (350°)12.7 mphMostly Cloudy
8:51 AM34.0 °F28.0 °F79 %30.38 in9.0 miNorth (350°)16.1 mph20.7 mphMostly Cloudy
9:02 AM35.6 °F28.4 °F75 %30.34 in9.0 miNorth (360°)12.7 mphOvercast
9:51 AM35.1 °F27.0 °F72 %30.40 in10.0 miNorth (10°)13.8 mph20.7 mphMostly Cloudy
10:00 AM35.6 °F28.4 °F75 %30.36 in10.0 miNorth (360°)15.0 mph20.7 mphMostly Cloudy
10:37 AM37.4 °F26.6 °F65 %30.37 in10.0 miNorth (10°)13.8 mph20.7 mphScattered Clouds
10:51 AM37.9 °F27.0 °F65 %30.40 in10.0 miNorth (350°)12.7 mph20.7 mphScattered Clouds
10:57 AM37.4 °F26.6 °F65 %30.37 in10.0 miNNW (330°)11.5 mphMostly Cloudy
11:30 AM37.4 °F26.6 °F65 %30.37 in10.0 miNNW (340°)12.7 mphScattered Clouds
11:51 AM39.0 °F26.1 °F60 %30.39 in10.0 miNNW (340°)15.0 mph19.6 mphPartly Cloudy
12:51 PM39.9 °F24.1 °F53 %30.38 in10.0 miNNW (330°)13.8 mph19.6 mphPartly Cloudy
1:51 PM41.0 °F21.9 °F47 %30.37 in10.0 miNW (310°)11.5 mphClear
2:51 PM41.0 °F21.0 °F45 %30.39 in10.0 miNW (320°)12.7 mphClear
3:51 PM39.0 °F19.9 °F46 %30.42 in10.0 miNNW (330°)13.8 mphPartly Cloudy
4:51 PM37.0 °F19.9 °F50 %30.44 in10.0 miNW (320°)11.5 mphClear
5:51 PM34.0 °F19.9 °F56 %30.48 in10.0 miNW (320°)8.1 mphClear
6:51 PM33.8 °F19.4 °F56 %30.46 in10.0 miCalmClear
7:51 PM30.9 °F19.0 °F61 %30.50 in10.0 miWNW (300°)3.5 mphClear
8:51 PM30.9 °F19.0 °F61 %30.51 in10.0 miNW (310°)3.5 mphClear
9:51 PM28.0 °F19.0 °F69 %30.53 in10.0 miCalmClear
10:51 PM27.0 °F19.0 °F72 %30.52 in10.0 miCalmClear
11:51 PM27.0 °F19.0 °F72 %30.52 in10.0 miWSW (240°)3.5 mphClear
Hourly data recorded from KSTL, located miles away from Chesterfield, Missouri







STORIES FROM OUR PARTNERS